Raduga-1

operational
NORAD ID: 28194 Int'l Des: 2004-010 Owner: KVR Country: RU
HEOCIRCULAR

Raduga-1について

説明を読み込み中...

リアルタイム位置

3D地球を読み込み中...

次回通過

高度履歴

Altitude vs Time

uPlot chart will show altitude changes over time

軌道要素

1 28194U 04010A 26060.50033354 .00000030 00000-0 00000+0 0 9998
2 28194 13.5524 21.6166 0005313 244.8124 133.1005 1.00170381 80344
Epoch: Mar 1, 2026 • Age: 48 hours

現在のステータス

高度 35799.1 km
速度 3.07 km/s
衛星直下点 -4.95°S, 58.99°E
打ち上げ日 Mar 27, 2004
運用期間 21.9 years
タイプ other

技術仕様

分類 Payload
質量 2500.00 kg
乾燥質量 2200.00 kg
総質量 2500.00 kg
長さ 5.00 m
直径 2.00 m
スパン 20.00 m
形状 Step Cyl + 2 Pan
製造者 NPOPMR
バスタイプ Globus
フェーズステータス In Orbit
所有者/国 KVR/RU

大規模コンステレーション

Loading constellations...